Precipitable_Water
0.88 0.78 0.72 0.79 0.86 0.85 0.82 0.78 0.75 0.87 0.93 0.79 0.71 0.68 0.70 0.83 0.88 0.89 0.93 0.97 0.98 1.03 1.15 1.33 1.51 1.57 1.63 1.68 1.62 1.70 1.81 1.93 2.01 1.99 1.89 1.86 1.87 1.93 2.00 2.06 2.08 2.05 2.05 2.01
0.74 0.69 0.76 0.79 0.85 0.81 0.84 0.78 0.76 0.91 1.07 0.92 0.68 0.63 0.72 0.77 0.76 0.84 0.86 0.89 0.96 1.06 1.16 1.26 1.38 1.53 1.65 1.66 1.66 1.62 1.72 1.90 1.95 2.00 1.95 1.96 1.97 2.00 2.02 2.08 2.11 2.11 2.05 2.04
0.58 0.67 0.74 0.70 0.72 0.74 0.82 0.78 0.80 0.81 0.97 0.98 0.73 0.57 0.64 0.75 0.82 0.86 0.90 0.94 0.97 0.97 1.08 1.20 1.32 1.45 1.59 1.64 1.69 1.70 1.66 1.72 1.88 1.97 2.00 1.99 2.02 2.03 2.00 2.04 2.01 2.03 2.08 2.10
0.59 0.70 0.68 0.68 0.66 0.76 0.69 0.88 0.89 0.86 0.85 0.68 0.76 0.40 0.54 0.64 0.71 0.82 0.89 0.92 0.96 1.01 1.11 1.19 1.28 1.39 1.50 1.57 1.71 1.80 1.74 1.61 1.77 1.88 1.90 1.90 1.85 1.82 1.92 1.96 2.04 2.06 2.13 2.12
0.60 0.66 0.66 0.65 0.69 0.80 0.73 0.89 0.89 0.89 0.79 0.72 0.65 0.52 0.52 0.58 0.58 0.69 0.79 0.90 0.92 0.98 1.09 1.15 1.24 1.36 1.50 1.59 1.62 1.65 1.72 1.72 1.75 1.77 1.77 1.75 1.74 1.82 1.94 1.96 1.94 2.02 2.08 2.09
0.63 0.76 0.73 0.72 0.79 0.84 0.91 0.83 0.86 0.87 0.75 0.46 0.60 0.57 0.50 0.45 0.48 0.65 0.70 0.85 0.87 0.89 0.98 1.06 1.18 1.27 1.33 1.46 1.52 1.57 1.61 1.64 1.72 1.77 1.77 1.75 1.75 1.79 1.79 1.84 1.84 1.85 1.89 1.90
0.58 0.63 0.73 0.77 0.72 0.87 0.82 0.72 0.55 0.55 0.47 0.39 0.60 0.54 0.52 0.58 0.55 0.65 0.67 0.79 0.83 0.86 0.87 0.90 0.94 1.02 1.15 1.22 1.30 1.36 1.41 1.42 1.55 1.59 1.61 1.63 1.59 1.62 1.59 1.62 1.62 1.65 1.74 1.79
0.47 0.50 0.64 0.75 0.72 0.66 0.76 0.74 0.55 0.42 0.35 0.39 0.57 0.41 0.46 0.57 0.63 0.69 0.74 0.78 0.78 0.82 0.88 0.86 0.91 1.02 1.10 1.20 1.29 1.34 1.37 1.38 1.45 1.51 1.54 1.61 1.66 1.62 1.60 1.64 1.68 1.74 1.78 1.86
0.49 0.53 0.67 0.74 0.77 0.74 0.70 0.67 0.74 0.54 0.54 0.43 0.46 0.48 0.54 0.53 0.55 0.67 0.68 0.78 0.74 0.79 0.82 0.86 0.96 1.02 1.12 1.19 1.25 1.35 1.39 1.44 1.47 1.52 1.61 1.65 1.72 1.74 1.74 1.78 1.84 1.85 1.95 1.96
0.58 0.54 0.63 0.70 0.79 0.79 0.72 0.80 0.58 0.56 0.39 0.33 0.37 0.36 0.40 0.50 0.46 0.57 0.70 0.66 0.63 0.68 0.76 0.80 0.89 0.99 1.08 1.17 1.27 1.37 1.42 1.43 1.52 1.56 1.64 1.68 1.71 1.76 1.81 1.85 1.86 1.89 1.91 1.96
0.56 0.58 0.55 0.68 0.60 0.60 0.67 0.63 0.64 0.61 0.51 0.34 0.28 0.30 0.50 0.49 0.48 0.56 0.61 0.58 0.59 0.59 0.66 0.80 0.86 0.98 1.06 1.13 1.20 1.28 1.34 1.37 1.43 1.53 1.59 1.63 1.67 1.76 1.91 2.00 2.09 2.13 2.16 2.18
0.54 0.53 0.50 0.56 0.62 0.72 0.73 0.67 0.66 0.51 0.44 0.39 0.35 0.31 0.40 0.46 0.47 0.56 0.57 0.53 0.59 0.63 0.69 0.75 0.85 0.94 0.99 1.07 1.16 1.23 1.30 1.34 1.50 1.63 1.66 1.68 1.74 1.87 1.92 2.01 2.07 2.07 2.02 2.06
0.49 0.47 0.43 0.46 0.58 0.62 0.61 0.68 0.65 0.60 0.56 0.44 0.31 0.34 0.55 0.58 0.56 0.61 0.60 0.57 0.62 0.65 0.72 0.77 0.86 0.95 1.11 1.21 1.27 1.29 1.37 1.47 1.54 1.60 1.63 1.68 1.72 1.79 1.84 1.83 1.86 1.84 1.78 1.72
0.50 0.44 0.45 0.39 0.47 0.55 0.55 0.61 0.57 0.55 0.45 0.48 0.36 0.37 0.47 0.53 0.55 0.61 0.67 0.75 0.76 0.76 0.81 0.87 0.96 1.06 1.15 1.27 1.31 1.35 1.41 1.52 1.57 1.58 1.56 1.55 1.59 1.62 1.64 1.61 1.54 1.47 1.38 1.25
0.44 0.36 0.43 0.48 0.51 0.57 0.54 0.56 0.53 0.51 0.54 0.44 0.43 0.40 0.44 0.50 0.55 0.60 0.74 0.82 0.84 0.81 0.87 0.96 1.00 1.07 1.17 1.27 1.33 1.41 1.46 1.53 1.56 1.53 1.47 1.42 1.43 1.38 1.26 1.14 1.05 1.05 1.06 1.07
0.36 0.33 0.40 0.42 0.50 0.50 0.47 0.52 0.53 0.59 0.59 0.59 0.57 0.50 0.49 0.58 0.68 0.71 0.77 0.84 0.85 0.85 0.93 1.01 1.07 1.17 1.22 1.24 1.29 1.37 1.41 1.40 1.28 1.14 1.07 1.04 0.99 0.94 0.93 0.96 0.98 1.01 1.05 1.08
0.28 0.33 0.37 0.36 0.47 0.47 0.42 0.46 0.52 0.58 0.63 0.64 0.54 0.58 0.57 0.60 0.63 0.69 0.79 0.85 0.87 0.90 0.95 1.04 1.14 1.23 1.27 1.29 1.36 1.22 1.01 0.97 0.92 0.88 0.84 0.85 0.88 0.86 0.89 0.94 0.95 0.96 0.95 1.00
0.28 0.31 0.39 0.35 0.42 0.34 0.43 0.54 0.58 0.56 0.63 0.67 0.69 0.69 0.65 0.67 0.72 0.82 0.95 0.95 0.95 0.97 1.01 1.11 1.21 1.33 1.35 1.25 0.99 0.89 0.86 0.83 0.77 0.80 0.82 0.83 0.82 0.82 0.86 0.88 0.91 0.95 0.97 0.96
0.33 0.32 0.29 0.29 0.32 0.41 0.43 0.52 0.52 0.52 0.57 0.68 0.69 0.75 0.83 0.85 0.89 0.86 1.03 1.12 1.08 1.11 1.15 1.24 1.35 1.35 1.00 0.88 0.85 0.80 0.73 0.77 0.80 0.76 0.76 0.79 0.82 0.80 0.84 0.88 0.93 0.97 0.96 0.97
0.35 0.39 0.30 0.29 0.30 0.28 0.41 0.54 0.57 0.58 0.46 0.63 0.71 0.76 0.79 0.84 0.59 0.64 1.01 1.14 1.17 1.21 1.32 1.27 1.18 0.87 0.82 0.83 0.80 0.72 0.75 0.77 0.72 0.75 0.78 0.82 0.82 0.85 0.88 0.93 0.96 0.99 0.99 0.96
0.28 0.33 0.28 0.28 0.32 0.34 0.45 0.50 0.59 0.44 0.51 0.68 0.76 0.78 0.81 0.68 0.69 0.83 1.06 1.15 1.22 1.27 1.22 1.00 0.84 0.74 0.78 0.80 0.78 0.77 0.78 0.72 0.78 0.81 0.83 0.84 0.88 0.91 0.97 1.01 1.04 1.02 0.99 0.99
0.23 0.26 0.28 0.32 0.31 0.26 0.45 0.51 0.40 0.50 0.67 0.70 0.77 0.83 0.79 0.86 0.86 0.95 1.04 1.10 1.18 1.14 0.89 0.81 0.75 0.74 0.80 0.82 0.82 0.77 0.75 0.83 0.83 0.83 0.84 0.86 0.92 0.96 1.02 1.04 1.04 1.02 0.93 0.84
0.25 0.26 0.28 0.32 0.30 0.38 0.46 0.48 0.48 0.51 0.60 0.70 0.79 0.85 0.89 0.84 0.88 0.96 1.00 1.12 1.18 0.95 0.76 0.82 0.75 0.76 0.83 0.89 0.89 0.80 0.84 0.88 0.86 0.85 0.85 0.90 0.97 1.03 1.08 1.07 0.98 0.85 0.79 0.67
0.30 0.33 0.28 0.32 0.33 0.34 0.46 0.53 0.51 0.53 0.55 0.68 0.81 0.83 0.86 0.81 0.95 1.01 1.07 1.12 1.06 0.85 0.78 0.80 0.78 0.77 0.80 0.94 0.99 0.98 0.97 0.94 0.86 0.86 0.89 0.95 0.99 1.03 1.09 1.02 0.88 0.80 0.71 0.62
0.37 0.32 0.30 0.31 0.34 0.35 0.44 0.55 0.57 0.62 0.72 0.81 0.92 0.88 0.82 0.88 0.95 1.02 1.09 1.12 0.94 0.87 0.86 0.81 0.77 0.80 0.88 1.01 1.03 1.02 1.00 0.91 0.84 0.87 0.93 0.98 1.02 1.05 1.06 0.94 0.89 0.83 0.75 0.64
0.49 0.35 0.26 0.26 0.33 0.34 0.37 0.48 0.60 0.66 0.77 0.85 0.87 0.96 1.03 0.96 0.97 1.10 1.14 1.07 0.92 0.82 0.86 0.81 0.82 0.89 0.99 1.08 1.08 1.04 1.03 0.95 0.91 0.90 0.96 1.01 1.04 1.08 1.03 0.90 0.87 0.85 0.73 0.65
Wind_Speed
7 6 5 6 7 2 6 8 7 5 5 4 3 2 7 8 7 6 6 5 4 3 2 4 5 5 5 6 6 6 6 6 7 6 6 5 6 6 7 8 7 7 7 7
9 7 5 3 5 5 7 9 6 5 4 3 2 2 5 7 7 7 5 4 4 3 4 6 7 7 6 6 6 7 6 7 7 6 6 6 6 5 5 5 6 6 6 6
10 6 5 6 6 8 6 8 8 5 6 3 5 3 4 6 6 5 5 4 3 3 4 6 7 7 6 6 6 6 7 7 6 6 6 5 5 4 4 4 5 5 5 6
10 8 7 6 7 9 6 6 8 9 7 4 2 4 4 7 7 6 6 5 5 5 6 7 8 7 6 6 5 6 7 7 6 6 6 5 4 4 3 2 2 3 4 4
13 9 8 6 4 9 3 7 9 8 5 5 6 3 6 7 7 6 7 6 5 5 6 7 7 7 6 6 6 6 6 6 6 5 5 4 4 3 2 2 1 2 3 4
14 9 8 5 2 8 9 10 6 4 5 4 6 3 4 9 12 8 6 6 6 6 7 7 6 7 6 6 6 6 7 6 6 5 4 4 3 2 2 1 2 2 4 4
15 13 9 9 7 9 5 9 4 5 6 4 5 5 2 6 12 10 9 6 6 6 7 7 8 9 8 9 8 7 7 6 6 5 4 3 3 2 1 1 2 4 5 7
20 17 15 11 8 8 10 5 4 5 7 6 5 4 4 6 12 11 8 7 8 7 7 8 8 8 8 8 7 7 6 5 5 4 3 2 2 1 2 3 5 6 8 9
21 17 12 11 10 10 8 6 5 6 5 6 6 4 4 9 13 11 11 8 8 8 8 8 8 8 7 7 6 5 4 3 3 2 2 2 2 3 4 6 7 9 10 11
19 18 13 11 11 7 9 9 8 5 8 6 6 5 9 13 14 14 11 10 10 10 9 9 8 7 6 5 4 3 2 2 1 2 2 3 4 6 7 9 11 12 13 15
23 19 14 15 15 15 10 10 6 5 5 7 8 6 11 14 15 14 12 12 11 10 10 9 8 7 6 5 4 2 1 0 1 2 3 5 6 7 9 11 12 13 15 15
25 17 16 14 12 14 12 12 13 9 7 6 6 9 12 14 15 14 13 12 11 11 10 9 8 7 6 5 4 2 1 1 2 3 4 5 7 8 9 11 12 14 14 15
29 23 19 16 15 13 14 13 12 11 8 10 10 13 13 13 13 13 14 12 10 10 9 8 7 6 6 5 5 4 4 3 4 4 5 6 7 8 10 11 12 13 13 14
29 27 24 21 16 14 14 14 14 16 11 11 11 15 17 16 16 14 13 12 11 10 9 9 8 6 5 4 3 3 4 4 5 6 7 8 8 9 10 11 12 13 13 13
28 31 27 24 17 16 15 14 16 18 13 15 15 17 21 19 17 16 13 12 12 11 9 7 6 4 3 2 2 3 4 5 6 7 7 8 9 9 10 11 11 12 12 12
24 27 28 29 22 20 19 17 17 18 15 12 16 15 17 17 15 15 14 13 13 11 9 6 4 4 2 1 1 3 4 5 6 7 7 8 9 9 10 11 11 11 11 11
24 27 27 29 24 22 22 22 20 19 20 16 16 16 18 17 17 16 16 14 13 11 9 7 5 3 1 0 1 3 4 5 6 6 7 8 9 9 10 10 11 11 11 11
26 24 26 27 24 26 24 21 22 23 24 21 14 16 21 18 15 15 15 14 12 12 10 7 5 3 1 1 2 3 4 5 6 6 7 8 9 10 10 10 11 11 11 12
33 27 26 27 29 19 22 22 21 22 23 24 21 19 18 18 15 13 15 15 13 11 9 7 5 3 2 2 2 4 5 5 6 7 8 8 9 10 10 11 11 12 12 12
33 32 28 26 30 29 24 27 22 20 21 23 23 23 22 21 17 15 17 16 14 12 9 8 5 4 3 3 3 4 5 5 6 7 8 8 9 10 11 11 12 13 13 13
31 31 35 29 29 28 28 25 23 23 19 24 24 23 25 22 16 18 19 17 15 12 11 8 7 5 4 3 3 4 4 5 6 6 7 8 9 10 11 12 13 14 14 14
34 34 31 31 29 28 30 29 28 23 20 21 23 23 25 23 20 22 20 19 16 14 12 10 7 5 4 3 3 3 3 4 5 6 7 8 10 11 12 13 14 15 15 15
35 37 34 35 32 25 28 30 30 24 21 23 24 23 26 25 24 24 22 20 17 15 13 10 8 5 4 3 3 3 3 4 5 6 7 9 10 11 13 13 14 15 15 15
34 34 35 31 34 32 26 28 26 27 25 25 26 25 27 26 26 26 23 21 19 16 14 11 9 6 4 3 2 3 3 4 5 7 8 9 11 12 13 14 14 15 15 15
28 33 35 35 30 34 29 27 26 25 24 24 27 29 28 27 27 28 24 22 19 18 14 12 9 7 4 2 0 2 3 5 6 7 9 10 12 13 13 13 13 14 14 14
29 30 35 35 34 34 33 32 27 24 23 25 30 30 28 28 27 28 26 23 20 18 16 13 10 8 6 3 2 3 4 6 7 8 10 11 13 13 13 12 13 14 14 13
Wind_Direction
179 178 169 175 189 172 184 163 149 143 130 130 118 100 153 154 161 160 158 156 161 164 151 166 167 151 141 146 161 161 152 150 152 152 151 160 156 166 172 186 194 202 209 215
176 189 189 174 171 161 161 160 148 129 142 158 131 128 138 156 167 170 172 169 160 138 127 122 142 151 143 134 144 164 163 161 157 153 152 148 145 146 171 187 199 206 212 222
192 175 157 178 167 159 167 179 167 160 147 102 126 124 158 161 176 171 174 175 164 159 147 139 138 141 149 150 133 141 162 159 157 158 153 150 151 155 149 171 190 205 222 232
207 197 195 198 197 186 176 184 175 153 164 156 126 148 166 171 175 171 178 163 154 137 135 136 134 137 141 149 148 139 140 154 153 154 158 157 158 156 150 162 184 211 226 242
196 183 181 183 176 185 182 166 152 152 138 149 163 118 148 164 182 189 178 173 161 152 149 144 140 138 138 138 137 148 145 145 154 155 160 163 171 173 175 183 208 228 257 268
202 195 176 168 134 173 145 132 137 151 166 175 163 161 146 177 181 175 175 165 160 148 149 147 141 135 131 137 143 141 149 146 146 155 163 169 173 175 181 217 255 274 287 287
197 193 185 170 131 153 175 164 158 180 191 170 155 179 189 175 178 175 171 169 155 148 142 142 140 134 127 125 128 132 138 144 142 141 149 158 169 171 201 255 279 288 300 300
198 200 193 194 191 189 184 196 180 175 176 168 161 189 139 158 166 172 167 152 142 143 143 146 143 140 136 132 130 133 136 140 143 148 154 160 184 233 266 284 293 299 303 305
195 205 193 198 192 187 187 196 172 142 158 174 169 186 161 153 162 164 162 162 151 143 140 142 138 138 138 137 136 134 139 150 163 182 204 233 261 270 285 288 294 300 300 301
198 205 201 189 189 193 203 171 180 175 172 174 168 173 151 154 158 158 164 160 146 137 136 137 135 135 135 138 139 139 141 164 219 251 261 275 281 286 291 295 296 299 295 297
196 205 196 195 207 196 194 196 176 180 197 175 172 172 170 163 161 160 160 154 143 137 137 132 129 125 123 120 120 125 127 247 298 291 287 290 295 296 296 297 300 302 301 301
198 199 200 203 203 206 203 198 197 199 187 177 172 163 163 160 162 162 154 147 140 135 134 132 125 117 112 105 97 94 74 34 346 330 318 313 308 306 306 307 308 308 307 307
200 206 201 197 201 200 206 202 199 192 187 192 177 174 171 167 162 162 157 150 143 140 137 133 126 117 109 98 87 77 69 47 22 2 346 335 328 323 319 318 317 317 316 316
203 208 209 206 205 195 202 202 201 205 206 193 186 173 182 179 174 168 161 154 149 145 141 135 126 115 108 98 80 61 42 20 5 353 344 339 332 328 326 326 325 325 325 325
207 213 209 213 204 202 209 206 203 205 206 194 177 176 185 182 183 180 169 166 158 151 144 140 138 129 112 97 62 34 14 2 356 354 351 348 344 339 338 337 335 334 334 334
213 212 209 216 210 218 223 219 212 204 197 187 180 176 181 181 180 181 179 172 170 168 162 154 148 148 136 86 20 7 1 354 353 359 360 357 357 354 352 348 346 347 349 350
211 210 206 214 212 217 224 217 207 205 198 191 191 192 178 182 188 186 182 180 177 176 175 173 170 168 162 28 360 359 358 0 7 12 10 9 6 5 4 5 7 7 7 6
211 209 211 210 203 217 217 217 209 205 202 202 190 188 189 190 189 187 189 185 180 181 181 178 176 168 141 52 26 21 19 22 22 21 16 13 13 14 15 17 17 15 9 6
212 210 210 210 211 217 215 204 199 198 207 204 201 193 190 185 183 189 190 188 183 180 177 172 166 155 128 87 59 51 41 35 28 23 21 19 18 18 18 14 10 6 3 0
210 211 212 208 213 214 210 205 208 205 218 201 198 196 191 188 195 196 187 181 178 175 173 167 159 143 122 97 76 60 48 38 31 26 23 20 18 16 14 9 5 0 358 355
203 207 210 211 215 217 206 204 195 205 208 197 200 197 194 196 203 185 179 177 176 176 172 166 155 142 124 105 82 59 45 35 29 24 21 18 14 10 5 1 357 355 352 350
204 202 207 209 212 218 203 202 206 210 207 201 202 201 197 193 186 179 177 176 174 173 170 165 155 141 124 105 84 63 43 33 24 18 13 8 4 360 357 355 352 349 347 347
210 211 209 212 213 213 207 208 214 212 211 209 204 201 193 188 187 182 179 178 178 174 170 169 163 151 134 114 85 62 45 28 18 10 3 359 356 352 350 349 350 349 350 351
213 211 213 212 215 214 214 211 210 212 213 209 204 197 191 191 188 184 182 181 180 179 175 174 171 166 155 135 87 45 30 10 3 357 354 350 347 346 346 346 347 350 350 352
212 207 209 212 213 212 215 210 209 212 213 211 203 194 189 187 188 186 185 183 182 183 184 183 182 181 179 177 208 360 356 355 352 347 344 344 344 343 343 343 343 346 347 349
211 211 210 212 208 208 212 211 208 207 205 199 191 191 194 191 187 187 188 187 188 189 190 191 192 193 195 209 267 318 329 334 340 342 339 336 338 338 338 337 340 341 342 345